Location: Tucson
(32.2217°N, 110.9265°W)
Time: 08:27:21
(UTC-07:00)

A-11 Canister half - Visible Passes

Search period start: 25 October 2021 00:00
Search period end: 04 November 2021 00:00
Orbit: 1515 x 1684 km, 47.2° (Epoch: 25 October)

Date Brightness Start Highest point End Pass type
(mag) Time Alt. Az. Time Alt. Az. Time Alt. Az.
25 Oct 9.9 19:15:40 10° W 19:25:05 42° NNW 19:31:45 19° NE visible
25 Oct 10.3 21:23:43 10° NW 21:29:56 30° NNW 21:29:56 30° NNW visible
26 Oct 9.9 18:52:32 10° W 19:02:02 43° NNW 19:09:59 15° NE visible
26 Oct 10.1 21:00:38 10° WNW 21:08:10 32° N 21:08:10 32° N visible
27 Oct 9.9 18:29:25 10° W 18:38:59 45° NNW 18:48:12 11° NE visible
27 Oct 10.0 20:37:33 10° WNW 20:46:21 33° N 20:46:23 33° N visible
27 Oct 11.2 22:43:43 10° NW 22:44:35 13° NW 22:44:35 13° NW visible
28 Oct 9.9 18:06:18 10° W 18:15:57 46° NNW 18:25:26 10° NE visible
28 Oct 9.9 20:14:27 10° WNW 20:23:16 33° N 20:24:37 32° NNE visible
28 Oct 10.9 22:20:46 10° NW 22:22:48 18° NW 22:22:48 18° NW visible
29 Oct 9.8 17:43:11 10° W 17:52:55 48° NNW 18:02:29 10° NE visible
29 Oct 10.0 19:51:21 10° WNW 20:00:11 33° N 20:02:50 29° NNE visible
29 Oct 10.7 21:57:47 10° NW 22:01:01 23° NW 22:01:01 23° NW visible
30 Oct 10.0 19:28:14 10° WNW 19:37:06 33° N 19:41:03 25° NE visible
30 Oct 10.4 21:34:48 10° NW 21:39:15 28° NNW 21:39:15 28° NNW visible
31 Oct 10.0 19:05:07 10° WNW 19:14:00 33° N 19:19:17 21° NE visible
31 Oct 10.1 21:11:49 10° NW 21:17:29 33° NNW 21:17:29 33° NNW visible
01 Nov 10.1 18:42:00 10° WNW 18:50:55 34° N 18:57:32 17° NE visible
01 Nov 9.9 20:48:49 10° NW 20:55:44 38° NNW 20:55:44 38° NNW visible
02 Nov 10.1 18:18:52 10° WNW 18:27:50 34° N 18:35:49 12° NE visible
02 Nov 9.7 20:25:50 10° NW 20:34:00 42° N 20:34:00 42° N visible
02 Nov 11.1 22:31:07 10° NW 22:32:12 14° NW 22:32:12 14° NW visible
03 Nov 10.1 17:55:44 10° WNW 18:04:44 34° N 18:13:35 10° ENE visible
03 Nov 9.6 20:02:49 10° NW 20:12:13 42° NNE 20:12:18 42° NNE visible
03 Nov 10.8 22:08:08 10° NW 22:10:30 20° NW 22:10:30 20° NW visible
